Regional Weather Roundup
Issued by NWS Charleston, SC

Current Version | Previous Version | Graphics & Text | Print | Product List | Glossary On
Versions: 1 2 3 4 5 6 7 8 9 10 11 12 13 14 15 16 17 18 19 20 21 22 23 24 25 26 27 28 29 30 31 32 33 34 35 36 37 38 39 40 41 42 43 44 45 46 47 48 49 50
000 ASUS42 KCHS 011712 RWRCHS REGIONAL WEATHER ROUNDUP NATIONAL WEATHER SERVICE CHARLESTON SC 100 PM EDT TUE SEP 01 2015 NOTE: "FAIR" INDICATES FEW OR NO CLOUDS BELOW 12,000 FEET WITH NO SIGNIFICANT WEATHER AND/OR OBSTRUCTIONS TO VISIBILITY. NOT ALL STATIONS ARE QUALITY CONTROLLED BY THE NATIONAL WEATHER SERVICE. USE DATA WITH CAUTION...ESPECIALLY DEWPOINT OBSERVATIONS. SCZ027-030-031-034>040-042>050-011800- ...SOUTHEAST SOUTH CAROLINA... CITY SKY/WX TMP DP RH WIND PRES REMARKS N CHARLESTON PTSUNNY 87 69 54 CALM 30.10F HX 91 WATERFRONT PRK N/A 86 72 62 VRB3 30.09S HX 92 MOUNT PLEASANT LGT RAIN 86 72 62 CALM 30.10F HX 92 JOHNS ISLAND PTSUNNY 86 72 62 CALM 30.10F HX 92 PINOPOLIS N/A 88 73 62 VRB2 30.02F HX 96 MONCKS CORNER FAIR 86 72 62 SW3 30.10F HX 92 SUMMERVILLE FAIR 88 72 58 NE6 30.11F HX 94 BEAUFORT MCAS PTSUNNY 86 72 62 E6 30.11F HX 92 BEAUFORT ARPT FAIR 84 73 70 CALM 30.11S HX 91 HILTON HEAD IS MOSUNNY 84 73 70 N6 30.12F HX 91 WALTERBORO MOSUNNY 88 70 55 SE3 30.11F HX 92 ALLENDALE FAIR 86 70 58 CALM 30.10F HX 90 ...SOUTHERN MIDLANDS AND PEE DEE... CITY SKY/WX TMP DP RH WIND PRES REMARKS GEORGETOWN NOT AVBL KINGSTREE NOT AVBL ORANGEBURG MOSUNNY 88 67 49 N3 30.10F HX 91 BARNWELL FAIR 88 70 55 E6 30.11F HX 92 AIKEN FAIR 84 63 48 NE3 30.14F MANNING FAIR 84 66 54 NW3 30.10S COLUMBIA PTSUNNY 88 66 48 NE3 30.09F HX 90 SUMTER MOSUNNY 87 67 51 VRB6 30.08F HX 90 FLORENCE MOSUNNY 88 70 55 N6 30.09F HX 93 MYRTLE BEACH MOSUNNY 86 72 62 N7 30.09F HX 92 N MYRTLE BEACH MOSUNNY 86 72 62 NE7 30.09F HX 92 $$ GAZ063-065-086>088-099>101-113>116-118-119-134>141-150-011800- ...SOUTHEAST GEORGIA... CITY SKY/WX TMP DP RH WIND PRES REMARKS SAVANNAH ARPT PTSUNNY 88 71 57 CALM 30.10F HX 94 HUNTER AAF PTSUNNY 85 78 82 NE6 30.07F HX 96 FORT STEWART PTSUNNY 85 73 65 NE6 30.08F HX 91 STATESBORO MOSUNNY 85 74 69 E3 30.11S HX 93 SYLVANIA MOSUNNY 86 73 65 CALM 30.12S HX 93 CLAXTON NOT AVBL ...CSRA...CENTRAL AND FAR SOUTHEAST GEORGIA... CITY SKY/WX TMP DP RH WIND PRES REMARKS THOMSON SUNNY 86 72 62 CALM 30.16F HX 93 AUGUSTA-BUSH MOSUNNY 86 68 54 CALM 30.10F AUGUSTA-DANIEL SUNNY 87 66 49 CALM 30.12F SWAINSBORO CLOUDY 86 64 48 CALM 30.12S VIDALIA MOSUNNY 86 70 58 N3 30.11F HX 90 EASTMAN FAIR 88 71 57 E5 30.13F HX 94 HAZLEHURST FAIR 88 71 57 N6 30.09F HX 94 ALMA PTSUNNY 86 72 62 VRB5 30.10S HX 92 WAYCROSS CLOUDY 86 80 82 E7 30.10S HX 101 JESUP PTSUNNY 88 79 74 E6 30.10S HX 102 BAXLEY CLOUDY 88 72 58 N6 30.09F HX 94 BRUNSWICK CLOUDY 77 75 94 NE7 30.11R THUNDER SAINT SIMONS CLOUDY 77 76 96 SE6 30.11R $$ SCZ027-028-034-036>038-045-046-048>050-GAZ119-141-011800- ...LAKE AND SUPPLEMENTAL COASTAL OBSERVATIONS... STATION/POSITION TIME TEMP WIND PRES WAVE SWELL AIR SEA DIR/SP/G HT/PER HT/PER/DIR (UTC) (F) (DEG/KT/KT) (MB) (FT/S) (FT/S/D) UPR LAKE MARION NOT AVBL WINYAH BAY 1545 83 330/ 4 1019.0 LAKE MURRAY 1600 84 180/ 5/ 6 1019.3F ACE BASIN NERRS NOT AVBL FORT PULASKI 1600 81 83 40/ 5/ 7 1020.3S SAPELO ISLAND 1600 82 N/A $$ ANZ835-935-AMZ111-154-330-350-352-354-370-450-454-472-011800- ...C-MAN AND BUOY OBSERVATIONS... STATION/POSITION TIME TEMP WIND PRES WAVE SWELL AIR SEA DIR/SP/G HT/PER HT/PER/DIR (UTC) (F) (DEG/KT/KT) (MB) (FT/S) (FT/S/D) BUOY 41004 1650 81 83 30/ 6/ 8 1019.1F 3/ 7 3/ 7 BUOY 41008 1650 79 84 50/ 12/ 14 1019.1F 2/10 2/100/10 FOLLY BEACH CMAN 1600 82 100/ 3/ 4 1019.9F CAPERS NEARSHORE 1608 83 90/ 2/ 4 1019.8S FRIPP NEARSHORE 1600 82 40/ 6/ 8 1019.4F STATION/POSITION TIME TEMP WIND PRES WAVE SWELL AIR SEA DIR/SP/G HT/PER HT/PER/DIR (UTC) (F) (DEG/KT/KT) (MB) (FT/S) (FT/S/D) 5E ST. MARYS GA 1621 85 N/A 2/ 8 FRYING PAN BUOY 1650 79 81 340/ 10/ 12 1019.3F 2/ 8 2/110/ 8 BUOY 41025 1650 79 84 340/ 8/ 10 1018.1F 3/ 6 3/180/ 6 CAPE LOOKOUT NC 1600 80 290/ 6/ 7 1018.8F BUOY 41002 1650 84 84 250/ 6/ 8 1019.1F 3/ 6 3/230/ 6 BUOY 41010 1620 84 86 160/ 6/ 8 1019.4F ST AUGUSTINE FL 1700 82 84 140/ 9/ 11 1019.3F $$

USA.gov is the U.S. government's official web portal to all federal, state and local government web resources and services.